Погода в Комендадоре

Доминиканская Республика     18°52′24″N   71°41′57″W
темп.,
°C
ветер,
м/с
пор.,
м/с
влажн.,
%
обл.,
%
осадки,
мм/ч
давл.,
гПа
погр.,
м
17 мая, вт
вт1723:00+18юв358283 0.0 1019100
02:00+18вюв3479100 0.0 101873
05:00+17юв338481 0.0 101847
08:00+21юв34727 0.0 1019249
11:00+27ююв2354100 0.0 10181371
14:00+28ююв224870 0.0 10161887
17:00+25вюв336383 0.3 1016620
20:00+20ююз118864 3.7 101929
18 мая, ср
ср1823:00+20в228744 0.1 102036
02:00+19вюв238884 0.1 101845
05:00+19юв238963 0.0 101852
08:00+22вюв33796 0.0 1019281
11:00+27юв245723 0.0 10191280
14:00+28ю2352100 0.1 10161287
17:00+25вюв126588 1.8 1016639
20:00+20св2292100 6.3 101976
19 мая, чт
чт1923:00+20юв2293100 0.6 102044
02:00+19юв2394100 0.6 101887
05:00+19юв249361 0.0 101883
08:00+21юв3488100 0.0 1019266
11:00+25юв346799 0.0 1018966
14:00+28юв3451100 0.0 10161542
17:00+26ююв3357100 0.0 1015628
20:00+20ююв2386100 1.3 101847
20 мая, пт
пт2023:00+19юв3488100 0.2 1020118
02:00+19юв359194 0.2 1018121
05:00+18юв359464 0.0 1018136
08:00+20вюв4683100 0.0 1020338
11:00+25юв4558100 0.0 10191131
14:00+28юв454583 0.0 10181556
17:00+26юв4449100 0.0 1017894
20:00+20юв3578100 0.0 1020114
21 мая, сб
сб2123:00+19юв3487100 0.0 102187
02:00+18юв3489100 0.0 1020103
05:00+17юв3488100 0.0 102073
08:00+21юв347483 0.0 1021233
11:00+26юв3652100 0.0 10201184
14:00+27юв3543100 0.0 10191596
17:00+26вюв2356100 0.2 10181163
20:00+20вюв2287100 4.9 102160